Starlink 3096

operational
NORAD ID: 49131 Int'l Des: 2021-082 Owner: SPXS Country: US Constellation: starlink
LEOCIRCULAR

Über Starlink 3096

Beschreibung wird geladen...

Live-Position

3D-Globus wird geladen...

Nächste Überflüge

Höhenverlauf

Altitude vs Time

uPlot chart will show altitude changes over time

Zweizeiliger Elementsatz

1 49131U 21082B 25303.91126469 -.00002264 00000-0 -18206-3 0 9998
2 49131 69.9996 221.6609 0003217 273.1994 86.8797 14.98313115227521
Epoch: 30. Okt. 2025 • Age: 8 hours

Aktueller Status

Höhe 575.1 km
Geschwindigkeit 7.58 km/s
Subsatellitenpunkt 22.22°N, 99.72°E
Startdatum 14. Sept. 2021
Alter 4.1 years
Typ internet

Technische Details

Klassifizierung Payload
Masse 297.00 kg
Trockenmasse 275.00 kg
Gesamtmasse 297.00 kg
Länge 0.20 m
Durchmesser 2.80 m
Spannweite 9.00 m
Form Box + pan
Hersteller SPXS
Bus-Typ Starlink
Phasenstatus In Orbit
Besitzer/Staat SPXS/US

Große Konstellationen

Loading constellations...